Location: Barrialito
(10.3588°N, 66.9747°W)
Time: 01:41:10
(UTC+00:00)

CZ-4C R/B - Visible Passes

Search period start: 02 July 2022 00:00
Search period end: 12 July 2022 00:00
Orbit: 581 x 1419 km, 63.4° (Epoch: 01 July)

Date Brightness Start Highest point End Pass type
(mag) Time Alt. Az. Time Alt. Az. Time Alt. Az.
02 Jul 4.1 08:54:07 10° SSE 08:56:40 16° ESE 08:59:17 10° ENE visible
03 Jul 1.7 09:25:31 10° SSW 09:29:38 69° ESE 09:34:03 10° NNE visible
04 Jul 4.3 08:14:08 10° ESE 08:14:57 10° ESE 08:15:45 10° E visible
05 Jul 2.4 08:45:30 22° S 08:47:53 45° ESE 08:52:07 10° NE visible
06 Jul 2.1 09:18:28 19° WSW 09:21:01 38° WNW 09:25:13 10° N visible
07 Jul 3.0 08:06:10 30° ESE 08:06:10 30° ESE 08:10:01 10° NE visible
08 Jul 1.5 08:39:01 56° WNW 08:39:13 57° WNW 08:43:37 10° NNE visible
09 Jul 4.3 07:26:36 15° ENE 07:26:36 15° ENE 07:27:43 10° ENE visible
09 Jul 3.4 09:11:48 14° WNW 09:12:35 14° WNW 09:15:01 10° NNW visible
10 Jul 3.0 07:59:21 33° NNE 07:59:21 33° NNE 08:01:54 10° NNE visible
11 Jul 3.5 08:32:01 18° NW 08:32:01 18° NW 08:34:03 10° NNW visible
